Location: Unspecified
(0.0000°N, 0.0000°E)
Time: 03:17:33
(UTC+00:00)

SJ-6F - Pass Details

Date: 08 August 2021
Orbit: 570 x 594 km, 97.8° (Epoch: 26 September)

Event Time Altitude Azimuth Distance (km) Brightness Sun altitude
Rises 04:32:10 0° 357° (N) 2,764 8.1 -22.4°
Reaches altitude 10° 04:34:25 10° 349° (NNW) 1,867 7.1 -21.9°
Enters shadow 04:36:30 25° 327° (NNW) 1,163 5.8 -21.4°
